Weather History for Kendall, FL

Change the Weather History Date:

Sunday, May 4, 2014

  Actual Average Record
Temperature  
Mean Temperature 79 °F -  
Max Temperature 88 °F 85 °F 91 °F (1997)
Min Temperature 70 °F 66 °F 58 °F (1992)
Cooling Degree Days 14    
Growing Degree Days 29 (Base 50)    
Moisture  
Dew Point 62 °F    
Average Humidity 63    
Maximum Humidity 91    
Minimum Humidity 28    
Precipitation  
Precipitation 0.00 in - - ()
Sea Level Pressure  
Sea Level Pressure 30.02 in    
Wind  
Wind Speed 8 mph (North)    
Max Wind Speed 17 mph    
Max Gust Speed 24 mph    
Visibility 10 miles    
Events      
Averages and records for this station are not official NWS values.
T = Trace of Precipitation, MM = Missing Value Source: NWS Daily Summary

Daily Weather History Graph

Daily Weather History Graph

Search for Another Location

Airport:

Trip Planner

Search our weather history database for the weather conditions in past years. The results will help you decide how hot, cold, wet, or windy it might be!

Date:

Astronomy

May. 04, 2014 Rise Set
Actual Time 6:42 AM EDT 7:54 PM EDT
Civil Twilight 6:18 AM EDT 8:18 PM EDT
Nautical Twilight 5:49 AM EDT 8:47 PM EDT
Astronomical Twilight 5:20 AM EDT 9:17 PM EDT
Moon 11:07 AM EDT (5/4) No Moon Set
Length of Visible Light 14h 00m
Length of Day
13h 11m
Waxing Crescent, 27% of the Moon is Illuminated
May 4
Waxing Crescent
May 6
First Quarter
May 14
Full
May 21
Last Quarter
May 28
New

Hourly Weather History & Observations

Time (EDT) Temp. Heat Index Dew Point Humidity Pressure Visibility Wind Dir Wind Speed Gust Speed Precip Events Conditions
12:53 AM 75.9 °F - 72.0 °F 87% 30.02 in 10.0 mi Calm Calm - N/A   Mostly Cloudy
1:53 AM 77.0 °F - 71.1 °F 82% 30.00 in 10.0 mi South 3.5 mph - N/A   Overcast
2:53 AM 77.0 °F - 71.1 °F 82% 29.98 in 10.0 mi SSW 4.6 mph - N/A   Overcast
3:53 AM 75.9 °F - 72.0 °F 87% 29.98 in 10.0 mi WSW 3.5 mph - N/A   Overcast
4:29 AM 75.9 °F - 72.0 °F 87% 29.99 in 10.0 mi West 6.9 mph - N/A   Overcast
4:53 AM 75.0 °F - 72.0 °F 90% 29.98 in 10.0 mi West 5.8 mph - N/A   Overcast
5:53 AM 73.9 °F - 71.1 °F 91% 29.99 in 10.0 mi NW 9.2 mph - N/A   Scattered Clouds
6:04 AM 73.9 °F - 71.1 °F 91% 30.00 in 10.0 mi NW 8.1 mph - N/A   Mostly Cloudy
6:27 AM 71.1 °F - 68.0 °F 90% 30.01 in 10.0 mi North 17.3 mph 23.0 mph N/A   Overcast
6:53 AM 70.0 °F - 66.9 °F 90% 30.02 in 10.0 mi NNW 15.0 mph - N/A   Overcast
7:53 AM 70.0 °F - 66.0 °F 87% 30.05 in 10.0 mi NNW 9.2 mph - N/A   Overcast
8:53 AM 71.1 °F - 64.9 °F 81% 30.05 in 10.0 mi North 12.7 mph 19.6 mph N/A   Overcast
9:16 AM 73.9 °F - 64.0 °F 71% 30.06 in 10.0 mi North 17.3 mph 24.2 mph N/A   Scattered Clouds
9:53 AM 75.9 °F - 62.1 °F 62% 30.06 in 10.0 mi NNW 16.1 mph - N/A   Clear
10:53 AM 79.0 °F - 57.9 °F 48% 30.06 in 10.0 mi NNW 17.3 mph 23.0 mph N/A   Clear
11:53 AM 82.9 °F 82.1 °F 55.9 °F 39% 30.06 in 10.0 mi North 17.3 mph - N/A   Clear
12:53 PM 84.0 °F - 52.0 °F 33% 30.05 in 10.0 mi North 17.3 mph - N/A   Clear
1:53 PM 86.0 °F - 52.0 °F 31% 30.04 in 10.0 mi NNE 12.7 mph 21.9 mph N/A   Clear
2:53 PM 87.1 °F - 50.0 °F 28% 30.01 in 10.0 mi NNE 12.7 mph - N/A   Clear
3:53 PM 88.0 °F - 52.0 °F 29% 29.99 in 10.0 mi North 16.1 mph 21.9 mph N/A   Clear
4:53 PM 87.1 °F - 50.0 °F 28% 29.98 in 10.0 mi North 10.4 mph 23.0 mph N/A   Clear
5:53 PM 86.0 °F - 48.9 °F 28% 29.99 in 10.0 mi NNE 10.4 mph 19.6 mph N/A   Clear
6:53 PM 84.0 °F 83.0 °F 55.9 °F 38% 30.00 in 10.0 mi NE 13.8 mph - N/A   Clear
7:53 PM 80.1 °F 80.6 °F 57.9 °F 47% 30.01 in 10.0 mi ENE 10.4 mph - N/A   Clear
8:53 PM 78.1 °F - 60.1 °F 54% 30.04 in 10.0 mi ENE 10.4 mph - N/A   Clear
9:53 PM 75.9 °F - 59.0 °F 56% 30.05 in 10.0 mi ENE 5.8 mph - N/A   Clear
10:53 PM 73.9 °F - 60.1 °F 62% 30.06 in 10.0 mi NE 5.8 mph - N/A   Clear
11:53 PM 70.0 °F - 60.1 °F 71% 30.06 in 10.0 mi NNE 3.5 mph - N/A   Clear